TOM822 EGCC-LTBS

Flight info

Callsign TOM822
Flight time N/A
Altitude 33000
Route SANBA N859 HON L15 FINMA DCT CHT DCT ITVIP DCT KONAN DCT KOK UL607 FERDI DCT REMBA DCT ARCKY DCT LIRSU DCT KRH DCT KUNOD DCT GEDSO DCT VEKEN DCT NEMEK DCT TUPUS DCT MONID DCT ETOBI DCT EDALA DCT OSLUD DCT MEDUX UM867 KOGAT DCT DISOR DCT PEREN DCT STINO DCT RIKSO UP14 ODNOD UT491 SONUP
Aircraft B738/M-SDE2E3FGHIRWXY/LB1

Departure

Time N/A
Airport Manchester Airport (EGCC)

Arrival

Time 2026-04-27 20:52
Airport Dalaman International Airport (LTBS)
Time Latitude Longitude Altitude Speed Heading
2026-04-27 20:20 38.48274 27.13877 33059 ft 447 kts 133°
2026-04-27 20:21 38.44112 27.19700 33065 ft 447 kts 133°
2026-04-27 20:21 38.39928 27.25543 33070 ft 446 kts 133°
2026-04-27 20:22 38.35582 27.31108 32751 ft 436 kts 139°
2026-04-27 20:22 38.33308 27.33648 32482 ft 427 kts 140°
2026-04-27 20:22 38.31092 27.36047 32219 ft 419 kts 141°
2026-04-27 20:23 38.28869 27.38442 31963 ft 414 kts 140°
2026-04-27 20:23 38.26699 27.40791 31706 ft 414 kts 140°
2026-04-27 20:23 38.24479 27.43215 31440 ft 415 kts 140°
2026-04-27 20:23 38.22317 27.45595 31184 ft 414 kts 140°
2026-04-27 20:24 38.20154 27.47994 30921 ft 411 kts 139°
2026-04-27 20:24 38.18003 27.50393 30660 ft 408 kts 139°
2026-04-27 20:24 38.15873 27.52775 30400 ft 406 kts 139°
2026-04-27 20:24 38.13767 27.55135 30137 ft 405 kts 139°
2026-04-27 20:25 38.11647 27.57513 29874 ft 404 kts 139°
2026-04-27 20:25 38.09566 27.59848 29615 ft 402 kts 139°
2026-04-27 20:25 38.07461 27.62208 29350 ft 400 kts 138°
2026-04-27 20:25 38.05384 27.64537 29086 ft 398 kts 138°
2026-04-27 20:26 38.03313 27.66857 28823 ft 396 kts 139°
2026-04-27 20:26 38.01257 27.69158 28562 ft 395 kts 139°
2026-04-27 20:26 37.99199 27.71460 28299 ft 394 kts 139°
2026-04-27 20:26 37.97163 27.73735 28038 ft 392 kts 139°
2026-04-27 20:27 37.95112 27.76026 27771 ft 390 kts 139°
2026-04-27 20:27 37.93066 27.78308 27256 ft 393 kts 139°
2026-04-27 20:27 37.91034 27.80573 26585 ft 396 kts 139°
2026-04-27 20:27 37.88955 27.82888 25904 ft 399 kts 139°
2026-04-27 20:28 37.86866 27.85213 25224 ft 401 kts 139°
2026-04-27 20:28 37.84787 27.87525 24552 ft 403 kts 139°
2026-04-27 20:28 37.82683 27.89863 23871 ft 404 kts 139°
2026-04-27 20:28 37.81262 27.91441 23414 ft 405 kts 139°
2026-04-27 20:29 37.78426 27.94588 22458 ft 408 kts 139°
2026-04-27 20:29 37.76301 27.96943 21735 ft 410 kts 139°
2026-04-27 20:29 37.74167 27.99307 21014 ft 411 kts 139°
2026-04-27 20:29 37.72012 28.01693 20289 ft 412 kts 139°
2026-04-27 20:30 37.69869 28.04063 19570 ft 413 kts 138°
2026-04-27 20:30 37.67717 28.06442 18854 ft 413 kts 138°
2026-04-27 20:30 37.65550 28.08836 18141 ft 413 kts 138°
2026-04-27 20:30 37.63389 28.11221 17434 ft 413 kts 138°
2026-04-27 20:31 37.61261 28.13569 16720 ft 412 kts 138°
2026-04-27 20:31 37.59086 28.15966 16010 ft 410 kts 138°
2026-04-27 20:31 37.56963 28.18303 15309 ft 409 kts 138°
2026-04-27 20:31 37.54823 28.20657 14612 ft 407 kts 138°
2026-04-27 20:32 37.52695 28.22995 14104 ft 400 kts 137°
2026-04-27 20:32 37.50655 28.25233 14049 ft 381 kts 137°
2026-04-27 20:32 37.48711 28.27366 14055 ft 361 kts 137°
2026-04-27 20:32 37.46854 28.29400 14056 ft 343 kts 137°
2026-04-27 20:33 37.45106 28.31317 14057 ft 326 kts 137°
2026-04-27 20:33 37.43441 28.33142 14059 ft 312 kts 137°
2026-04-27 20:33 37.41815 28.34926 14063 ft 312 kts 137°
2026-04-27 20:33 37.40165 28.36735 14062 ft 314 kts 137°
2026-04-27 20:34 37.38520 28.38537 14068 ft 314 kts 137°
2026-04-27 20:34 37.36867 28.40344 14066 ft 314 kts 137°
2026-04-27 20:34 37.35224 28.42138 14069 ft 314 kts 137°
2026-04-27 20:34 37.33557 28.43957 14073 ft 314 kts 137°
2026-04-27 20:35 37.31903 28.45761 13871 ft 317 kts 137°
2026-04-27 20:35 37.30255 28.47556 13633 ft 311 kts 137°
2026-04-27 20:35 37.28635 28.49320 13396 ft 310 kts 137°
2026-04-27 20:35 37.27006 28.51093 13154 ft 310 kts 137°
2026-04-27 20:36 37.25380 28.52862 12906 ft 308 kts 137°
2026-04-27 20:36 37.23772 28.54610 12658 ft 306 kts 137°
2026-04-27 20:36 37.22153 28.56370 12401 ft 304 kts 138°
2026-04-27 20:36 37.20553 28.58108 12149 ft 303 kts 138°
2026-04-27 20:37 37.18969 28.59827 11901 ft 301 kts 138°
2026-04-27 20:37 37.17385 28.61545 11653 ft 299 kts 138°
2026-04-27 20:37 37.15805 28.63258 11408 ft 298 kts 138°
2026-04-27 20:37 37.14238 28.64956 11165 ft 297 kts 138°
2026-04-27 20:38 37.12676 28.66649 10915 ft 296 kts 139°
2026-04-27 20:38 37.11135 28.68316 10663 ft 294 kts 139°
2026-04-27 20:38 37.09578 28.70001 10412 ft 293 kts 139°
2026-04-27 20:38 37.08024 28.71651 10166 ft 292 kts 141°
2026-04-27 20:39 37.06324 28.72971 9915 ft 290 kts 159°
2026-04-27 20:39 37.04369 28.73393 9679 ft 283 kts 181°
2026-04-27 20:39 37.02409 28.73229 9451 ft 281 kts 186°
2026-04-27 20:39 37.00454 28.72970 9205 ft 281 kts 186°
2026-04-27 20:40 36.98525 28.72751 9057 ft 277 kts 184°
2026-04-27 20:40 36.96573 28.72573 9049 ft 280 kts 184°
2026-04-27 20:40 36.94617 28.72420 9022 ft 281 kts 183°
2026-04-27 20:40 36.92685 28.72279 9024 ft 280 kts 183°
2026-04-27 20:41 36.90729 28.72137 9025 ft 281 kts 184°
2026-04-27 20:41 36.88779 28.71806 9018 ft 281 kts 192°
2026-04-27 20:41 36.86881 28.71253 8999 ft 281 kts 195°
2026-04-27 20:41 36.84967 28.70618 9003 ft 281 kts 195°
2026-04-27 20:42 36.83094 28.69994 8737 ft 282 kts 195°
2026-04-27 20:42 36.81194 28.69377 8313 ft 283 kts 194°
2026-04-27 20:42 36.79285 28.68772 7981 ft 280 kts 194°
2026-04-27 20:42 36.77400 28.68182 7639 ft 280 kts 194°
2026-04-27 20:43 36.75505 28.67591 7284 ft 279 kts 194°
2026-04-27 20:43 36.73629 28.67008 6929 ft 277 kts 194°
2026-04-27 20:43 36.71764 28.66427 6664 ft 273 kts 194°
2026-04-27 20:43 36.69949 28.65862 6557 ft 262 kts 194°
2026-04-27 20:44 36.68216 28.65315 6400 ft 255 kts 194°
2026-04-27 20:44 36.66500 28.64742 6086 ft 255 kts 195°
2026-04-27 20:44 36.64802 28.64160 5777 ft 252 kts 195°
2026-04-27 20:44 36.63113 28.63582 5506 ft 250 kts 195°
2026-04-27 20:45 36.61446 28.63014 5230 ft 249 kts 195°
2026-04-27 20:45 36.59774 28.62448 4939 ft 248 kts 195°
2026-04-27 20:45 36.58125 28.61890 4650 ft 247 kts 195°
2026-04-27 20:45 36.56457 28.61382 4365 ft 245 kts 189°
2026-04-27 20:46 36.54767 28.61412 4072 ft 241 kts 161°
2026-04-27 20:46 36.53376 28.62466 3834 ft 235 kts 131°
2026-04-27 20:46 36.52530 28.64144 3713 ft 223 kts 111°
2026-04-27 20:46 36.52056 28.65914 3646 ft 211 kts 104°
2026-04-27 20:47 36.51690 28.67626 3576 ft 201 kts 103°
2026-04-27 20:47 36.51370 28.69274 3529 ft 189 kts 97°
2026-04-27 20:47 36.51412 28.70861 3470 ft 181 kts 70°
2026-04-27 20:47 36.52074 28.72171 3385 ft 181 kts 44°
2026-04-27 20:48 36.53097 28.73077 3183 ft 181 kts 23°
2026-04-27 20:48 36.53891 28.73401 3063 ft 179 kts 14°
2026-04-27 20:48 36.55500 28.73876 2842 ft 178 kts 14°
2026-04-27 20:48 36.56697 28.74293 2767 ft 176 kts 17°
2026-04-27 20:49 36.57885 28.74719 2783 ft 178 kts 15°
2026-04-27 20:49 36.59098 28.75118 2581 ft 184 kts 15°
2026-04-27 20:49 36.60334 28.75537 2222 ft 178 kts 15°
2026-04-27 20:49 36.61507 28.75918 1797 ft 176 kts 16°
2026-04-27 20:50 36.62649 28.76322 1577 ft 160 kts 17°
2026-04-27 20:50 36.63686 28.76688 1403 ft 153 kts 14°
2026-04-27 20:50 36.64704 28.76984 1196 ft 152 kts 15°
2026-04-27 20:50 36.65753 28.77345 992 ft 157 kts 17°
2026-04-27 20:51 36.66798 28.77715 758 ft 153 kts 15°
2026-04-27 20:51 36.67830 28.78059 542 ft 153 kts 16°
2026-04-27 20:51 36.68848 28.78412 299 ft 153 kts 17°
2026-04-27 20:51 36.69888 28.78771 106 ft 154 kts 16°
2026-04-27 20:52 36.70863 28.79100 28 ft 114 kts 17°
2026-04-27 20:52 36.71402 28.79283 27 ft 48 kts 15°
2026-04-27 20:52 36.71652 28.79370 27 ft 35 kts 15°
2026-04-27 20:52 36.71880 28.79432 27 ft 32 kts
2026-04-27 20:53 36.72088 28.79400 27 ft 23 kts 347°
2026-04-27 20:53 36.72190 28.79370 27 ft 13 kts 343°
2026-04-27 20:53 36.72273 28.79329 27 ft 11 kts 304°
2026-04-27 20:53 36.72296 28.79233 27 ft 11 kts 284°
2026-04-27 20:54 36.72329 28.79086 27 ft 2 kts 285°
2026-04-27 20:54 36.72330 28.79081 27 ft 0 kts 285°